• In Hungary
  • List of Countries
  • For 7 days
  • Water Temperature
  • Satellite Maps
  • Weather Map
  • News
  • Weather Widgets
  • user-avatar
    Login

    Hourly Weather Karuzi

    Today, 17 January, Wednesday

    Time Temperature Precipitation Wind Pressure Humidity
    00:00 +18°C° 0.2 mm 1 mps 628 mmHg 77%
    01:00 +18°C° 0.2 mm 1 mps 628 mmHg 77%
    02:00 +16°C° 0 mm 1 mps 628 mmHg 78%
    03:00 +16°C° 0.1 mm 1 mps 628 mmHg 78%
    04:00 +16°C° 0.1 mm 1 mps 628 mmHg 78%
    05:00 +15°C° 0.1 mm 1 mps 628 mmHg 78%
    06:00 +18°C° 0 mm 1 mps 628 mmHg 74%
    07:00 +19°C° 0 mm 1 mps 629 mmHg 70%
    08:00 +20°C° 0 mm 0 mps 630 mmHg 65%
    09:00 +24°C° 0.1 mm 1 mps 630 mmHg 59%
    10:00 +26°C° 0.1 mm 1 mps 631 mmHg 52%
    11:00 +28°C° 0.1 mm 1 mps 631 mmHg 46%
    12:00 +28°C° 0.1 mm 1 mps 630 mmHg 46%
    13:00 +28°C° 0.1 mm 2 mps 629 mmHg 46%
    14:00 +27°C° 0.1 mm 2 mps 629 mmHg 46%
    15:00 +26°C° 0.3 mm 2 mps 628 mmHg 52%
    16:00 +25°C° 0.3 mm 2 mps 628 mmHg 58%
    17:00 +24°C° 0.3 mm 1 mps 627 mmHg 64%
    18:00 +23°C° 0.4 mm 1 mps 627 mmHg 71%
    19:00 +21°C° 0.4 mm 1 mps 627 mmHg 77%
    20:00 +19°C° 0.4 mm 1 mps 627 mmHg 84%
    21:00 +19°C° 0.2 mm 1 mps 627 mmHg 85%
    22:00 +18°C° 0.2 mm 1 mps 628 mmHg 87%
    23:00 +18°C° 0.2 mm 1 mps 628 mmHg 88%

    Tomorrow, 18 January, Thursday

    Time Temperature Precipitation Wind Pressure Humidity
    00:00 +16°C° 0 mm 1 mps 628 mmHg 88%
    01:00 +16°C° 0 mm 1 mps 627 mmHg 87%
    02:00 +16°C° 0 mm 1 mps 627 mmHg 87%
    03:00 +16°C° 0 mm 1 mps 627 mmHg 86%
    04:00 +16°C° 0 mm 1 mps 627 mmHg 86%
    05:00 +15°C° 0 mm 1 mps 627 mmHg 85%
    06:00 +16°C° 0 mm 1 mps 628 mmHg 82%
    07:00 +18°C° 0 mm 1 mps 628 mmHg 78%
    08:00 +19°C° 0 mm 1 mps 629 mmHg 75%
    09:00 +22°C° 0 mm 1 mps 629 mmHg 65%
    10:00 +24°C° 0 mm 1 mps 630 mmHg 56%
    11:00 +27°C° 0 mm 1 mps 631 mmHg 46%
    12:00 +28°C° 0 mm 2 mps 630 mmHg 44%
    13:00 +28°C° 0 mm 2 mps 630 mmHg 41%
    14:00 +29°C° 0 mm 2 mps 629 mmHg 39%
    15:00 +27°C° 0 mm 2 mps 628 mmHg 45%
    16:00 +26°C° 0 mm 2 mps 628 mmHg 52%
    17:00 +25°C° 0 mm 1 mps 627 mmHg 59%
    18:00 +23°C° 0.1 mm 1 mps 627 mmHg 64%
    19:00 +21°C° 0.1 mm 1 mps 627 mmHg 69%
    20:00 +19°C° 0.1 mm 1 mps 628 mmHg 74%
    21:00 +19°C° 0.1 mm 1 mps 628 mmHg 76%
    22:00 +18°C° 0.1 mm 1 mps 628 mmHg 78%
    23:00 +16°C° 0.1 mm 0 mps 628 mmHg 80%

    Day after tomorrow, 19 January, Friday

    Time Temperature Precipitation Wind Pressure Humidity
    00:00 +18°C° 0 mm 1 mps 628 mmHg 81%
    01:00 +16°C° 0 mm 1 mps 627 mmHg 82%
    02:00 +16°C° 0 mm 1 mps 627 mmHg 83%
    03:00 +16°C° 0 mm 1 mps 627 mmHg 82%
    04:00 +16°C° 0 mm 1 mps 627 mmHg 82%
    05:00 +15°C° 0 mm 1 mps 627 mmHg 82%
    06:00 +18°C° 0 mm 1 mps 628 mmHg 78%
    07:00 +19°C° 0 mm 1 mps 628 mmHg 74%
    08:00 +20°C° 0 mm 1 mps 629 mmHg 70%
    09:00 +23°C° 0 mm 1 mps 630 mmHg 61%
    10:00 +25°C° 0 mm 1 mps 630 mmHg 53%
    11:00 +28°C° 0 mm 1 mps 631 mmHg 45%
    12:00 +28°C° 0 mm 1 mps 630 mmHg 43%
    13:00 +28°C° 0 mm 2 mps 629 mmHg 42%
    14:00 +28°C° 0 mm 2 mps 629 mmHg 40%
    15:00 +27°C° 0 mm 2 mps 628 mmHg 46%
    16:00 +26°C° 0 mm 1 mps 628 mmHg 51%
    17:00 +26°C° 0 mm 1 mps 628 mmHg 57%
    18:00 +24°C° 0.2 mm 1 mps 628 mmHg 63%
    19:00 +22°C° 0.2 mm 1 mps 628 mmHg 69%
    20:00 +20°C° 0.2 mm 1 mps 628 mmHg 75%
    21:00 +19°C° 0.2 mm 1 mps 628 mmHg 77%
    22:00 +19°C° 0.2 mm 1 mps 628 mmHg 80%
    23:00 +18°C° 0.2 mm 1 mps 628 mmHg 82%

    20 January, Saturday

    Time Temperature Precipitation Wind Pressure Humidity
    00:00 +18°C° 0.1 mm 1 mps 628 mmHg 83%
    01:00 +16°C° 0.1 mm 1 mps 628 mmHg 84%
    02:00 +16°C° 0.1 mm 1 mps 627 mmHg 84%
    03:00 +16°C° 0 mm 1 mps 627 mmHg 84%
    04:00 +16°C° 0 mm 1 mps 627 mmHg 83%
    05:00 +15°C° 0 mm 1 mps 627 mmHg 82%
    06:00 +18°C° 0 mm 1 mps 628 mmHg 78%
    07:00 +19°C° 0 mm 1 mps 629 mmHg 73%
    08:00 +21°C° 0 mm 1 mps 630 mmHg 68%
    09:00 +23°C° 0 mm 1 mps 630 mmHg 61%
    10:00 +25°C° 0 mm 1 mps 631 mmHg 54%
    11:00 +28°C° 0 mm 1 mps 631 mmHg 47%
    12:00 +28°C° 0.2 mm 1 mps 630 mmHg 46%
    13:00 +28°C° 0.2 mm 2 mps 629 mmHg 44%
    14:00 +28°C° 0.2 mm 2 mps 629 mmHg 43%
    15:00 +27°C° 0.3 mm 2 mps 628 mmHg 50%
    16:00 +25°C° 0.3 mm 2 mps 628 mmHg 57%
    17:00 +24°C° 0.3 mm 1 mps 627 mmHg 64%
    18:00 +22°C° 0.6 mm 1 mps 628 mmHg 70%
    19:00 +20°C° 0.6 mm 2 mps 628 mmHg 76%
    20:00 +18°C° 0.6 mm 2 mps 628 mmHg 83%
    21:00 +18°C° 0.3 mm 1 mps 628 mmHg 84%
    22:00 +18°C° 0.3 mm 1 mps 629 mmHg 85%
    23:00 +16°C° 0.3 mm 1 mps 629 mmHg 87%

    21 January, Sunday

    Time Temperature Precipitation Wind Pressure Humidity
    00:00 +16°C° 0.1 mm 1 mps 628 mmHg 87%
    01:00 +16°C° 0.1 mm 1 mps 628 mmHg 87%
    02:00 +15°C° 0.1 mm 1 mps 627 mmHg 87%
    03:00 +15°C° 0 mm 1 mps 627 mmHg 87%
    04:00 +15°C° 0 mm 1 mps 627 mmHg 87%
    05:00 +14°C° 0 mm 1 mps 628 mmHg 86%
    06:00 +16°C° 0 mm 1 mps 629 mmHg 81%
    07:00 +19°C° 0 mm 1 mps 630 mmHg 76%
    08:00 +20°C° 0 mm 1 mps 631 mmHg 70%
    09:00 +22°C° 0.5 mm 1 mps 631 mmHg 65%
    10:00 +24°C° 0.5 mm 1 mps 631 mmHg 60%
    11:00 +24°C° 0.5 mm 0 mps 631 mmHg 55%
    12:00 +26°C° 0.8 mm 1 mps 630 mmHg 56%
    13:00 +26°C° 0.8 mm 1 mps 630 mmHg 56%
    14:00 +26°C° 0.8 mm 1 mps 629 mmHg 56%
    15:00 +25°C° 0.8 mm 1 mps 628 mmHg 61%
    16:00 +24°C° 0.8 mm 1 mps 628 mmHg 67%
    17:00 +22°C° 0.8 mm 1 mps 628 mmHg 73%
    18:00 +21°C° 0.4 mm 1 mps 628 mmHg 78%
    19:00 +19°C° 0.4 mm 1 mps 628 mmHg 82%
    20:00 +16°C° 0.4 mm 0 mps 628 mmHg 87%
    21:00 +16°C° 0.3 mm 0 mps 628 mmHg 88%
    22:00 +16°C° 0.3 mm 0 mps 628 mmHg 89%
    23:00 +15°C° 0.3 mm 0 mps 628 mmHg 90%

    22 January, Monday

    Time Temperature Precipitation Wind Pressure Humidity
    00:00 +16°C° 0.1 mm 1 mps 628 mmHg 91%
    01:00 +16°C° 0.1 mm 1 mps 627 mmHg 92%
    02:00 +15°C° 0.1 mm 1 mps 627 mmHg 92%
    03:00 +15°C° 0 mm 1 mps 627 mmHg 93%
    04:00 +15°C° 0 mm 1 mps 627 mmHg 93%
    05:00 +15°C° 0 mm 1 mps 627 mmHg 93%
    06:00 +15°C° 0 mm 0 mps 628 mmHg 89%
    07:00 +16°C° 0 mm 0 mps 629 mmHg 85%
    08:00 +17°C° 0 mm 0 mps 630 mmHg 81%
    09:00 +21°C° 0.2 mm 1 mps 630 mmHg 72%
    10:00 +23°C° 0.2 mm 1 mps 630 mmHg 63%
    11:00 +25°C° 0.2 mm 2 mps 630 mmHg 54%
    12:00 +25°C° 0.5 mm 2 mps 630 mmHg 54%
    13:00 +25°C° 0.5 mm 2 mps 629 mmHg 55%
    14:00 +26°C° 0.5 mm 2 mps 628 mmHg 55%
    15:00 +25°C° 0.6 mm 1 mps 628 mmHg 59%
    16:00 +24°C° 0.6 mm 1 mps 628 mmHg 62%
    17:00 +24°C° 0.6 mm 1 mps 628 mmHg 66%
    18:00 +22°C° 0.5 mm 1 mps 628 mmHg 72%
    19:00 +20°C° 0.5 mm 1 mps 627 mmHg 78%
    20:00 +18°C° 0.5 mm 1 mps 627 mmHg 84%
    21:00 +18°C° 0.1 mm 1 mps 627 mmHg 85%
    22:00 +18°C° 0.1 mm 1 mps 628 mmHg 86%
    23:00 +16°C° 0.1 mm 1 mps 628 mmHg 87%
    Show more